Vorticity
22 10 -41 58 -4 14 3 2 -13 51 -6 30 29 30 8 22 19 4 1 8 7 3
31 27 45 -53 21 -3 -2 4 13 1 2 66 -20 24 15 28 -15 14 -16 29 -3 6
38 29 50 32 -41 19 61 32 10 -9 34 -22 38 26 35 39 -39 1 -19 51 45 4
1 -2 20 40 29 -10 -37 12 47 -5 -10 11 28 13 -14 29 -12 -1 3 -3 14 -5
24 11 24 22 17 64 -22 29 70 19 0 27 38 42 -15 -7 8 -10 10 13 1 5
21 14 7 20 30 17 30 -3 -63 -16 28 46 18 -1 24 25 17 15 13 -1 21 25
9 14 11 9 14 23 16 26 14 38 16 31 6 13 8 7 8 10 20 10 25 28
-1 8 -0 -9 23 7 11 8 42 11 19 10 0 10 18 21 26 12 3 12 27 31
14 7 11 21 25 24 23 10 -12 11 22 -19 18 44 10 -2 10 23 17 8 2 -2
14 14 8 8 10 12 22 30 10 8 12 -6 4 -15 -3 19 30 24 14 9 9 11
7 9 11 16 17 19 14 16 18 10 20 9 21 11 1 12 -8 18 4 6 23 23
8 2 14 13 18 18 16 15 15 13 13 1 7 4 3 24 20 1 14 23 12 3
11 22 16 15 17 11 29 10 -1 8 12 10 4 2 -1 -3 -1 2 11 6 7 9
14 15 21 14 14 17 23 18 12 7 7 9 7 6 -2 17 1 -9 4 7 -0 2
Height
5641 5642 5644 5628 5639 5642 5645 5642 5644 5647 5635 5642 5640 5622 5641 5648 5645 5649 5658 5661 5666 5671
5616 5621 5619 5620 5619 5622 5625 5624 5616 5625 5626 5623 5624 5625 5623 5614 5631 5624 5636 5644 5650 5655
5597 5598 5598 5601 5603 5601 5601 5600 5604 5609 5610 5606 5602 5601 5610 5609 5622 5621 5628 5628 5636 5641
5579 5578 5576 5579 5580 5582 5583 5582 5578 5589 5590 5589 5593 5591 5597 5599 5601 5612 5616 5620 5622 5624
5560 5559 5561 5562 5561 5561 5565 5569 5565 5567 5572 5578 5576 5575 5580 5583 5590 5599 5601 5606 5603 5610
5543 5544 5546 5548 5550 5549 5553 5556 5554 5556 5562 5561 5566 5566 5567 5571 5575 5581 5585 5589 5594 5596
5530 5531 5533 5535 5536 5537 5539 5540 5543 5546 5549 5551 5554 5555 5557 5559 5560 5564 5568 5572 5576 5580
5516 5519 5521 5521 5523 5525 5525 5527 5530 5532 5537 5536 5541 5544 5547 5549 5552 5555 5556 5559 5563 5566
5499 5503 5505 5508 5511 5511 5511 5513 5515 5515 5521 5524 5528 5531 5534 5537 5540 5545 5546 5549 5550 5553
5485 5487 5490 5493 5497 5498 5500 5502 5501 5503 5505 5510 5514 5516 5520 5523 5527 5531 5535 5539 5541 5542
5472 5473 5473 5479 5481 5484 5487 5489 5490 5492 5495 5498 5501 5503 5505 5512 5514 5518 5522 5526 5530 5530
5458 5458 5460 5461 5466 5470 5474 5477 5478 5481 5485 5488 5490 5492 5494 5499 5501 5504 5510 5513 5516 5519
5442 5444 5446 5448 5452 5455 5459 5462 5465 5468 5472 5475 5478 5481 5485 5486 5489 5495 5498 5500 5502 5506
5426 5428 5430 5432 5435 5439 5444 5449 5453 5456 5459 5461 5465 5469 5472 5474 5478 5482 5486 5488 5490 5493